weather.gov     
National Weather Service

Other Public Products
NWS Homepage
This page is being discontinued on March 12, 2014.
The same data is available at this site. Please update your bookmarks.
Thank you, and we apologize for the inconvenience.
Please send an email to SR-SRH.Webmaster@noaa.gov with any concerns.


Current Version
Previous Version:    01  02  03  04  05  06  07  08  09  10  11  12  13  14  15  16  17  18  19  20  21  22  23  24  25  26  27  28  29  30  
   31  32  33  34  35  36  37  38  39  40  41  42  43  44  45  46  47  48  49  50  51  52  53  54  55  56  57  58  59  60  
[Printable]
049
FPUS83 KFGF 302131
OPUFGF
PRAIRIE TO PINES WEATHER ROUNDUP
NATIONAL WEATHER SERVICE EASTERN NORTH DAKOTA/GRAND FORKS ND
400 PM CDT TUE SEP 30 2014

 **SATELLITE DATA USED TO AUGMENT SKY COVER AT AUTOMATED STATIONS**
 *****  WEATHER ACROSS EASTERN NORTH DAKOTA  *****

CITY           SKY/WX    TMP DP  RH WIND       PRES   REMARKS
GRAND FORKS    PTSUNNY   61  45  55 SE17G24   29.72F
GRAND FORKS AF CLOUDY    57  52  82 SE13      29.72F
GRAND CITY NWS   N/A     59 N/A N/A SE15        N/A
BUXTON           N/A     57  48  71 SE12G24     N/A
DEVILS LAKE    PTSUNNY   55  45  67 E18       29.64F
FARGO          LGT RAIN  60  47  61 SE17G24   29.71F
WAHPETON ARPT  CLOUDY    54  46  76 SE15G25   29.72F
$$

 *****  WEATHER ACROSS CENTRAL AND WESTERN NORTH DAKOTA  *****

CITY           SKY/WX    TMP DP  RH WIND       PRES   REMARKS
JAMESTOWN      CLOUDY    52  48  86 SE17G32   29.61F
BISMARCK       CLOUDY    53  52  96 E21G29    29.50F
MINOT          LGT RAIN  50  48  93 E12       29.59F
MINOT AFB      LGT RAIN  50  50 100 E13       29.57F FOG
GARRISON         N/A     52  50  93 E14G22    29.55F
WILLISTON      RAIN      53  51  93 E8        29.54F FOG
DICKINSON      FOG       52  51  97 NE10      29.47F VSB 3/4
HETTINGER      LGT RAIN  56  53  90 NE10      29.45F
$$

 *****  OTHER OBSERVATIONS NORTHEAST NORTH DAKOTA  *****

CITY           SKY/WX    TMP DP  RH WIND       PRES   REMARKS
WALHALLA         N/A     57  50  77 SE15G21   29.72F
LANGDON        FAIR      55  46  71 SE20G26   29.68F
CAVALIER       FAIR      59  46  63 SE9G16    29.73F
GRAFTON        FAIR      59  46  63 E18G25    29.71F
CANDO          CLOUDY    54  48  82 E16       29.65F
FORT TOTTEN      N/A     54  49  83 SE12      29.95S
ROLLA          MOCLDY    48  48 100 E13       29.67F
RUGBY          MOCLDY    50  50 100 E15G24    29.62F
 ***** THE ABOVE OBSERVATIONS ARE NON NWS ARE NOT QUALITY
        CONTROLLED AND MAY MIS-REPORT RAIN FOR SNOW...
$$

 *****  OTHER OBSERVATIONS SOUTHEAST NORTH DAKOTA *****

CITY           SKY/WX    TMP DP  RH WIND       PRES   REMARKS
COOPERSTOWN    NOT AVBL
VALLEY CITY    LGT RAIN  52  52 100 SE21G32   29.65F
OAKES            N/A     52  50  93 E20G28    29.61F
GWINNER        CLOUDY    52  48  87 SE25G31   29.67F
SHEYENNE NWR     N/A     52  49  89 SE14      29.95S
BUFFALO          N/A     52  49  87 SE16        N/A
WYNDMERE         N/A     54  48  82 SE12        N/A
 ***** THE ABOVE OBSERVATIONS ARE NON NWS ARE NOT QUALITY
       CONTROLLED AND MAY MIS-REPORT RAIN FOR SNOW...
$$

  *****  WEATHER ACROSS NORTHERN MINNESOTA  *****

CITY           SKY/WX    TMP DP  RH WIND       PRES   REMARKS
FLAG ISLAND    SUNNY     55  45  67 SE10G18   29.86F
WARROAD        SUNNY     61  46  59 SE16      29.84F
ROSEAU         SUNNY     61  45  55 SE17      29.82F
HALLOCK        PTSUNNY   61  45  55 E14       29.75F
THF RVR FALLS  PTSUNNY   57  43  58 E18G25    29.78F
HALSTAD          N/A     60  39  45 SE16        N/A
FOSSTON        PTSUNNY   61  43  51 SE13G22   29.78F
BAUDETTE       SUNNY     57  42  57 SE14G21   29.88F
WASKISH        SUNNY     57  45  62 E9        29.87F
CROOKSTON      PTSUNNY   63  45  51 SE17G23   29.73F
$$
  *****  WEATHER ACROSS CENTRAL AND WEST MINNESOTA  *****

CITY           SKY/WX    TMP DP  RH WIND       PRES   REMARKS
BEMIDJI        PTSUNNY   55  43  63 SE17G23   29.85F
PARK RAPIDS    CLOUDY    55  42  61 SE15G23   29.85F
WADENA         CLOUDY    55  43  62 E17G24    29.83F
DETROIT LAKES  CLOUDY    57  43  58 SE21G32   29.79F
MOORHEAD       NOT AVBL
FERGUS FALLS   PTSUNNY   57  45  62 SE21G28   29.74F
ELBOW LAKE     CLOUDY    55  46  72 SE16G23   29.76F
MORRIS MN      PTSUNNY   55  46  71 SE20G30   29.76S
STAPLES        PTSUNNY   54  43  66 SE8G16    29.86F
WHEATON        DRIZZLE   52  46  82 SE18G29   29.74F
$$
  *****  WEATHER ELSEWHERE ACROSS MINNESOTA  *****

CITY           SKY/WX    TMP DP  RH WIND       PRES   REMARKS
DULUTH         PTSUNNY   47  41  80 E13       30.00F
INTRNTL FALLS  SUNNY     57  42  57 E14       29.93F
ELY            SUNNY     55  39  54 SE9       29.98F
CLOQUET        MOSUNNY   48  41  76 E12G21    29.97F
BRAINERD       PTSUNNY   51  42  71 E8G17     29.91F
HIBBING        MOSUNNY   55  43  63 SE12      29.96F
ALEXANDRIA     PTSUNNY   55  45  68 E16G30    29.83F
SAINT CLOUD    PTSUNNY   58  43  57 E10G20    29.89F
MINNEAPOLIS    CLOUDY    58  44  60 E16       29.91F
$$

  *****  WEATHER ACROSS SOUTH DAKOTA  *****

CITY           SKY/WX    TMP DP  RH WIND       PRES   REMARKS
SIOUX FALLS    CLOUDY    65  61  87 S20G29    29.72F
BROOKINGS      NOT AVBL
WATERTOWN      CLOUDY    62  57  83 SE20G30   29.67F
HURON          PTSUNNY   73  61  65 SE20G31   29.53F
SISSETON         N/A     50  49  96 S17G28    29.71F
ABERDEEN       SUNNY     67  58  72 SE29G40   29.53F
MITCHELL       MOSUNNY   77  48  35 S21G32    29.58F
PIERRE         CLOUDY    69  52  54 SW18G29   29.44S
MOBRIDGE       CLOUDY    65  54  67 S23G39    29.37F
RAPID CITY     PTSUNNY   63  45  51 NW26G33   29.54R
$$

  *****  SOME WEATHER IN NEARBY STATES *****

CITY           SKY/WX    TMP DP  RH WIND       PRES   REMARKS
GLASGOW MT     PTSUNNY   64  51  62 W7        29.55F
GREAT FALLS MT LGT RAIN  59  42  53 W15       29.71R
CHEYENNE WY    CLOUDY    62  34  35 W26G32    29.83S
SCOTTSBLUFF NE MOSUNNY   70  41  34 W22G33    29.71F
OMAHA NE       RAIN      66  63  90 S5        29.80F FOG
DES MOINES IA  PTSUNNY   69  59  70 E13       29.86F
DAVENPORT IA   NOT AVBL
CHICAGO IL     PTSUNNY   56  46  69 NE13      30.00F
EAU CLAIRE WI  MOSUNNY   56  42  59 SE7       29.98F
LA CROSSE WI   CLOUDY    57  44  62 E7        29.99F
$$

  *****  SOME NATIONAL WEATHER *****

CITY           SKY/WX    TMP DP  RH WIND       PRES   REMARKS
LA GUARDIA NY  CLOUDY    66  60  81 NE8       29.93S
RALEIGH NC     MOSUNNY   74  62  66 NE3       29.87F
ATLANTA GA     MOSUNNY   83  58  42 N8        29.89F
NEW ORLEANS LA MOSUNNY   88  69  53 NE14      29.83F HX  92
OKLAHOMA CITY  MOSUNNY   87  57  35 S14G24    29.77F
ALBUQUERQUE NM MOSUNNY   74  31  20 NW13      29.95F
SALT LAKE CITY LGT RAIN  59  46  62 NW14      29.94F
LOS ANGELES CA SUNNY     76  58  53 W12       29.81F
BOISE ID       PTSUNNY   61  36  39 NW22G29   29.98F
SEATTLE WA     PTSUNNY   64  49  57 S7        30.11F
$$

*** WEATHER ACROSS MANITOBA...SASKATCHEWAN AND ONTARIO ***
                ***ONTARIO***

CITY           SKY/WX    TMP DP  RH WIND       PRES   REMARKS
GERALDTON      SUNNY     57  36  44 SE8       30.09F
THUNDER BAY    SUNNY     54  32  43 E8        30.09F
SIOUX LOOKOUT  MOSUNNY   54  43  66 S8G17     29.98F
TORONTO        CLOUDY    63  59  88 S2        29.92S
BIG TROUT LK   CLOUDY    45  37  76 S9        30.00F
PICKLE LAKE    MOSUNNY   52  39  62 S9        30.01F
DRYDEN         SUNNY     54  43  66 S12G20    29.96F
KENORA         MOSUNNY   54  43  66 SE15      29.90F
$$
                *** MANITOBA***

CITY           SKY/WX    TMP DP  RH WIND       PRES   REMARKS
BRANDON        LGT RAIN  50  48  93 SE13G22   29.71F
DAUPHIN        LGT RAIN  50  46  87 SE14G22   29.68F
ISLAND LAKE    PTSUNNY   54  43  66 SE12      29.86F
PILOT MOUND      N/A     54  46  76 E18         N/A
THE PAS        CLOUDY    54  50  87 S12       29.64F
THOMPSON       LGT RAIN  54  48  82 SE9       29.73F
WINNIPEG       PTSUNNY   61  45  55 SE17      29.78
LYNN LAKE      LGT RAIN  45  45 100 SE13      29.62F
CHURCHILL      CLOUDY    43  43 100 E17       29.85  FOG
GILLAM         CLOUDY    50  41  71 S9        29.84S
$$
                ***SASKATCHEWAN***

CITY           SKY/WX    TMP DP  RH WIND       PRES   REMARKS
ESTEVAN        LGT RAIN  48  48 100 E7        29.60F FOG
KINDERSLEY     CLOUDY    54  48  82 NW13G18   29.60
LLOYDMINSTER   CLOUDY    54  50  87 NW15G24   29.59R
PRINCE ALBERT  CLOUDY    57  50  77 SW8       29.56
REGINA         LGT RAIN  55  54  94 SE12      29.56F




U.S. Dept. of Commerce
NOAA National Weather Service
1325 East West Highway
Silver Spring, MD 20910
E-mail: w-nws.webmaster@noaa.gov
Page last modified: May 16, 2007
NATIONAL WEATHER SERVICE: for Safety, for Work, for Fun - FOR LIFE